Wind_Speed
11 14 15 13 13 13 12 12 10 10 10 9 8 8 8 7 7 6 6 5 5 5 5 6 6 6 7 7 6 4 4 4 4 4 3 4 4 5 6 6 5 3 1
12 13 13 12 12 12 10 11 11 11 10 9 7 8 9 9 8 7 6 5 5 5 5 6 6 7 8 8 8 8 7 6 5 5 5 2 3 3 8 8 7 5 4
15 13 12 12 10 10 10 10 10 11 11 9 8 10 10 10 9 8 7 7 7 7 8 9 9 9 9 8 9 10 10 9 9 9 9 10 6 7 11 6 7 6 6
15 13 12 12 10 9 9 9 9 10 10 10 9 10 10 9 9 9 9 9 7 7 8 8 7 7 7 7 8 8 7 6 7 8 11 8 8 12 13 3 7 7 8
16 14 12 13 12 10 9 9 9 10 10 10 10 11 11 10 10 10 10 9 9 9 8 6 5 6 6 6 7 8 7 8 8 9 10 11 12 19 17 9 7 9 9
16 15 17 17 16 12 9 8 8 10 11 10 10 11 11 10 11 11 11 10 10 9 9 9 9 6 5 6 8 8 8 8 8 9 10 8 11 16 17 14 8 6 7
16 16 16 18 17 14 11 10 10 11 12 12 12 13 12 12 12 11 10 11 9 9 10 8 5 2 2 5 6 8 9 7 6 8 8 9 10 10 14 16 15 11 6
16 15 15 15 15 14 13 12 13 13 13 13 14 14 13 10 9 11 13 12 12 13 12 2 10 10 6 4 4 6 7 7 6 5 7 9 9 11 13 15 15 11 8
13 13 13 12 12 12 13 13 14 14 14 14 14 13 12 12 13 16 16 16 15 20 18 13 7 12 7 5 9 11 7 4 7 6 10 8 7 7 10 13 14 11 11
11 11 11 11 11 11 10 12 12 13 12 11 11 11 10 10 9 8 8 8 10 15 14 16 18 14 9 9 14 17 18 13 12 10 14 11 10 4 8 11 12 13 10
10 10 10 10 9 9 9 10 10 11 11 10 11 11 9 9 9 10 9 9 10 9 12 13 11 9 14 15 17 16 17 11 14 13 18 17 9 7 8 11 12 12 9
10 10 10 9 8 8 8 9 10 10 10 10 10 9 8 8 9 8 8 9 9 9 10 11 8 18 13 13 16 12 15 15 14 17 13 19 19 10 10 11 15 12 9
8 9 10 9 8 8 8 8 8 9 9 8 7 7 6 7 8 8 9 8 8 8 9 10 11 15 14 14 10 11 13 15 18 17 14 16 18 17 17 15 15 16 10
7 7 8 9 8 7 7 7 8 7 7 7 6 6 6 6 8 8 9 9 8 8 9 7 7 10 11 5 5 15 17 16 14 12 14 16 17 16 18 18 17 16 13
8 8 9 9 9 8 8 8 8 8 8 9 9 8 8 7 7 8 8 8 8 8 8 9 12 13 15 14 14 13 15 12 15 10 13 16 15 15 15 17 18 16 14
8 8 9 8 8 7 8 8 8 7 7 8 7 6 6 6 6 7 7 8 10 10 11 12 13 13 15 16 13 15 14 14 16 15 14 17 14 16 16 14 15 16 16
8 8 8 7 7 7 7 6 6 5 6 5 5 4 4 4 5 8 9 10 11 12 12 12 13 14 13 12 13 14 15 14 12 11 14 16 19 21 20 19 16 15 14
8 8 8 7 7 7 6 5 4 4 4 4 4 5 5 5 6 7 9 9 10 10 11 10 9 10 10 12 12 11 9 11 15 16 15 11 12 15 17 19 20 19 16
9 9 8 8 8 7 5 4 5 5 6 7 8 8 9 9 9 9 9 9 9 8 9 9 9 11 11 11 10 9 11 14 14 12 11 14 12 12 15 16 17 19 18
10 9 10 11 9 8 8 9 9 10 10 8 6 6 6 6 6 6 6 6 5 5 7 8 8 9 10 12 13 13 13 14 18 16 17 13 16 15 14 17 17 18 18
10 11 13 13 13 13 12 12 11 9 9 9 7 6 4 3 2 2 3 4 5 5 6 6 6 9 10 9 9 12 13 16 20 17 28 23 10 17 16 15 17 17 17
12 14 16 17 16 14 14 12 11 11 9 6 3 2 2 1 2 4 4 4 5 7 7 8 11 10 10 12 14 16 24 26 25 27 29 27 31 21 24 18 20 15 17
11 13 14 15 15 15 13 11 9 8 6 5 4 3 2 1 4 6 7 8 8 11 11 12 12 15 16 19 21 23 24 29 31 34 35 28 26 24 29 26 25 27 21
11 13 13 13 13 12 11 10 9 7 6 5 4 4 5 6 8 9 10 12 13 14 15 15 18 21 22 25 29 34 35 33 29 23 28 35 37 30 31 30 28 41 21
9 10 11 11 11 10 9 9 8 6 6 6 7 8 9 11 12 14 15 17 17 17 19 21 22 24 27 27 30 35 39 41 39 34 29 30 33 36 33 35 31 40 35
9 8 8 9 10 10 11 11 9 9 10 10 11 12 14 15 16 17 17 17 19 20 20 23 28 29 30 33 35 36 39 44 43 40 35 31 34 36 40 40 45 39 34
Wind_Direction
121 121 119 118 113 109 109 111 115 112 108 107 110 106 96 91 89 85 85 82 77 65 48 39 36 36 39 36 36 33 3 351 5 14 13 341 325 311 288 269 255 256 279
124 117 118 120 114 108 113 111 113 112 111 112 114 110 104 98 95 92 88 80 68 54 57 58 62 62 60 59 52 46 36 29 15 5 8 330 12 331 286 250 242 243 246
121 114 121 116 114 114 117 115 115 109 109 110 112 106 100 101 101 95 82 68 58 62 69 70 65 69 71 71 71 70 62 63 63 60 46 51 16 24 344 238 241 241 241
116 114 118 116 119 121 120 116 114 112 109 107 104 101 100 99 89 80 72 73 73 65 54 50 57 61 67 65 73 78 82 82 69 56 50 76 345 52 12 307 249 247 254
113 113 111 119 127 131 127 125 123 117 112 104 101 98 96 91 86 76 70 63 53 41 35 37 58 59 45 52 71 71 65 65 60 58 58 38 18 27 25 11 313 275 266
117 107 107 114 123 124 116 115 118 116 115 106 101 93 88 83 77 71 63 54 48 36 27 24 23 32 56 44 32 46 49 46 43 39 44 46 40 25 29 19 348 318 279
121 112 110 113 116 114 102 98 112 119 117 110 103 94 92 86 77 66 58 54 39 30 21 28 2 44 68 71 48 35 25 25 30 34 31 34 37 26 26 26 25 12 351
125 122 118 116 116 113 102 97 113 115 114 109 104 96 90 88 73 61 76 70 34 27 12 5 53 174 144 96 61 69 53 25 335 29 23 15 12 12 18 24 28 18 356
137 132 127 123 120 117 112 109 116 115 115 107 101 97 90 85 79 87 82 72 45 35 55 65 36 116 131 73 53 43 3 348 7 13 0 350 350 354 7 13 14 17 1
144 139 131 129 124 122 118 119 116 119 122 115 106 100 94 84 86 81 63 61 34 65 56 68 71 86 93 42 34 50 51 57 62 37 13 2 346 353 2 3 360 7 6
149 145 141 138 130 126 123 121 122 122 124 121 116 110 103 97 86 80 78 73 61 52 53 53 56 84 59 38 41 48 64 60 34 38 35 32 45 46 11 354 350 344 350
164 154 148 143 132 128 122 119 118 123 124 120 112 105 97 93 91 82 68 61 57 45 47 38 18 46 59 51 40 37 53 56 52 42 6 39 57 52 19 357 347 335 317
174 159 149 143 139 132 123 116 118 120 121 121 113 103 98 92 84 80 81 71 57 57 51 48 14 32 58 51 44 38 44 52 17 39 29 36 37 40 27 19 17 5 308
178 160 145 139 135 123 113 109 110 110 112 115 115 105 95 89 89 81 78 82 82 69 60 68 68 53 63 57 61 48 39 34 31 358 10 25 27 26 22 17 14 9 7
178 160 145 136 128 125 122 119 118 115 114 112 112 114 111 99 83 74 76 71 60 60 56 47 43 49 52 58 9 63 47 37 51 26 25 21 20 22 21 12 16 20 14
167 167 151 144 141 136 135 135 132 132 127 119 118 118 115 103 86 73 73 62 58 58 50 46 40 45 41 43 43 38 42 35 32 29 18 17 12 16 16 12 11 23 24
168 163 155 144 142 142 144 147 150 147 134 131 120 112 97 80 44 44 52 63 63 56 56 51 44 39 43 42 39 34 26 31 32 12 16 4 358 358 358 357 4 8 15
173 169 155 149 148 146 147 139 127 133 125 108 98 74 64 53 52 62 61 65 56 47 43 37 38 35 32 33 30 26 19 21 19 11 5 7 5 351 349 346 352 352 354
185 180 173 167 161 165 167 125 101 97 92 90 78 70 51 56 61 60 57 52 45 36 27 25 27 26 30 28 22 6 8 9 11 358 354 350 345 354 334 342 337 336 341
181 177 174 171 159 152 134 116 105 97 92 89 84 72 63 64 61 60 59 50 33 21 26 21 14 17 18 19 10 354 357 3 352 336 340 346 345 326 324 329 329 327 326
151 156 164 153 144 139 138 129 124 116 110 110 104 93 77 59 43 25 15 8 359 350 353 351 348 355 353 347 343 337 334 340 348 329 324 324 295 328 331 322 315 321 320
139 147 155 152 148 145 143 142 141 143 144 146 146 139 157 246 320 314 316 323 328 325 323 331 334 339 339 331 333 331 330 331 332 327 326 333 328 337 318 327 319 315 306
126 131 141 146 148 152 156 161 160 163 162 162 161 169 208 302 312 320 312 311 308 314 320 325 330 334 334 333 329 330 329 328 330 328 326 328 328 319 315 329 309 315 298
153 147 152 160 167 169 165 166 167 170 177 190 216 248 274 292 298 298 303 307 309 313 316 320 322 322 329 332 335 336 332 330 326 326 320 322 326 318 319 320 285 303 289
179 173 170 176 180 178 180 184 187 206 232 245 260 274 282 291 294 297 302 307 309 309 308 312 316 322 324 328 330 329 329 329 328 328 329 321 315 317 308 317 309 311 325
199 200 204 205 211 212 211 213 220 235 251 257 260 268 277 283 287 291 297 298 296 297 304 313 318 322 321 323 326 326 327 327 324 319 316 315 316 317 315 315 311 314 318
Height
5898 5898 5899 5900 5901 5902 5903 5903 5904 5905 5905 5906 5907 5907 5908 5908 5908 5908 5908 5908 5909 5909 5909 5909 5908 5908 5909 5909 5909 5909 5909 5909 5909 5909 5909 5909 5910 5910 5910 5911 5912 5912 5913
5900 5900 5901 5902 5903 5904 5905 5905 5906 5906 5907 5907 5908 5908 5909 5910 5910 5910 5910 5910 5910 5910 5909 5909 5909 5909 5910 5910 5910 5909 5910 5910 5910 5911 5911 5909 5909 5909 5908 5908 5910 5911 5912
5901 5902 5903 5903 5905 5906 5907 5907 5908 5908 5909 5910 5910 5910 5910 5911 5911 5911 5912 5912 5912 5911 5911 5911 5911 5911 5911 5912 5911 5911 5912 5912 5912 5912 5912 5911 5909 5908 5907 5908 5908 5908 5911
5903 5904 5905 5905 5907 5909 5909 5909 5910 5910 5911 5912 5912 5912 5912 5912 5913 5914 5914 5914 5914 5914 5914 5914 5914 5913 5914 5914 5914 5914 5913 5913 5913 5913 5913 5912 5907 5905 5908 5910 5909 5909 5910
5906 5906 5906 5907 5909 5911 5911 5911 5912 5912 5913 5914 5914 5914 5915 5915 5916 5916 5917 5917 5917 5917 5917 5917 5916 5917 5917 5917 5916 5916 5915 5915 5915 5915 5916 5913 5909 5907 5909 5910 5909 5909 5910
5909 5909 5908 5909 5910 5912 5913 5914 5914 5914 5915 5917 5917 5917 5918 5918 5918 5919 5919 5919 5920 5919 5919 5920 5920 5919 5919 5919 5919 5917 5916 5916 5916 5916 5914 5917 5912 5911 5911 5911 5910 5910 5910
5911 5911 5912 5912 5913 5914 5916 5916 5916 5917 5918 5919 5919 5920 5920 5920 5921 5921 5922 5921 5920 5921 5921 5920 5919 5919 5919 5919 5919 5919 5918 5917 5916 5915 5916 5915 5914 5913 5912 5911 5910 5910 5909
5913 5914 5915 5915 5916 5917 5918 5918 5919 5920 5921 5922 5922 5922 5923 5923 5923 5923 5923 5923 5923 5923 5921 5920 5916 5915 5917 5918 5917 5915 5914 5914 5915 5915 5914 5913 5914 5913 5913 5912 5912 5912 5911
5915 5916 5917 5918 5918 5919 5920 5921 5922 5923 5923 5924 5924 5925 5925 5925 5926 5926 5926 5926 5924 5924 5922 5921 5920 5920 5922 5921 5918 5914 5915 5913 5915 5918 5915 5913 5912 5913 5914 5913 5912 5912 5911
5917 5918 5919 5920 5920 5922 5923 5924 5924 5925 5926 5926 5927 5927 5928 5928 5929 5929 5928 5928 5927 5926 5927 5926 5927 5924 5923 5924 5922 5918 5915 5916 5914 5917 5917 5912 5909 5912 5914 5914 5913 5912 5911
5919 5920 5920 5922 5922 5924 5925 5926 5926 5927 5928 5928 5929 5929 5930 5930 5931 5931 5931 5930 5929 5928 5929 5928 5926 5922 5924 5919 5924 5922 5917 5916 5915 5917 5915 5912 5909 5912 5914 5914 5913 5913 5912
5920 5921 5922 5923 5924 5925 5926 5927 5928 5928 5929 5930 5931 5931 5932 5932 5933 5933 5933 5932 5932 5930 5931 5929 5924 5928 5926 5924 5912 5923 5920 5919 5916 5918 5915 5917 5911 5913 5914 5913 5912 5911 5911
5922 5922 5923 5924 5925 5926 5927 5929 5929 5930 5931 5931 5933 5933 5933 5934 5934 5934 5934 5934 5933 5931 5931 5931 5927 5928 5928 5923 5925 5923 5926 5921 5918 5920 5924 5921 5916 5912 5913 5913 5912 5910 5908
5923 5923 5924 5924 5926 5927 5929 5930 5931 5932 5932 5933 5934 5935 5935 5935 5936 5935 5935 5935 5934 5933 5932 5932 5933 5930 5929 5928 5921 5920 5921 5924 5925 5915 5924 5919 5918 5914 5912 5912 5911 5909 5907
5924 5924 5925 5925 5927 5929 5930 5931 5932 5933 5934 5935 5936 5936 5937 5937 5938 5938 5937 5937 5936 5935 5934 5933 5933 5932 5929 5927 5921 5919 5922 5928 5925 5924 5923 5919 5918 5915 5913 5912 5911 5909 5907
5924 5925 5926 5927 5929 5931 5932 5933 5934 5935 5936 5937 5938 5938 5939 5939 5939 5939 5939 5939 5938 5937 5936 5935 5934 5935 5933 5932 5931 5928 5930 5928 5925 5926 5925 5920 5921 5917 5915 5914 5912 5909 5907
5925 5926 5927 5929 5930 5932 5933 5935 5936 5937 5938 5939 5940 5940 5941 5941 5942 5942 5942 5942 5941 5940 5939 5937 5936 5934 5935 5934 5932 5930 5926 5925 5925 5925 5921 5921 5919 5917 5917 5916 5913 5910 5908
5925 5927 5928 5930 5932 5933 5935 5936 5937 5938 5940 5941 5942 5942 5942 5942 5942 5943 5943 5943 5943 5942 5940 5939 5938 5937 5936 5935 5934 5931 5928 5927 5924 5923 5920 5919 5917 5918 5918 5916 5913 5912 5910
5925 5927 5929 5930 5932 5934 5936 5938 5939 5941 5942 5944 5945 5945 5945 5944 5944 5944 5944 5944 5943 5942 5941 5940 5939 5938 5937 5936 5934 5931 5931 5929 5924 5922 5920 5918 5917 5915 5916 5913 5912 5911 5909
5924 5926 5928 5930 5933 5935 5937 5939 5940 5942 5943 5945 5945 5946 5946 5946 5946 5945 5945 5944 5943 5942 5941 5940 5939 5938 5937 5936 5934 5931 5930 5929 5928 5928 5922 5916 5916 5914 5915 5914 5909 5907 5907
5924 5926 5928 5931 5933 5936 5938 5940 5942 5943 5944 5945 5946 5947 5947 5946 5945 5945 5944 5943 5942 5942 5941 5941 5938 5938 5936 5935 5933 5929 5928 5929 5928 5925 5921 5913 5907 5914 5912 5911 5910 5905 5904
5925 5927 5929 5931 5934 5937 5939 5941 5942 5944 5944 5945 5946 5946 5947 5946 5946 5945 5944 5943 5943 5942 5941 5939 5938 5936 5934 5933 5932 5929 5923 5923 5923 5919 5915 5906 5885 5903 5906 5906 5906 5903 5902
5926 5928 5931 5933 5936 5938 5940 5942 5943 5944 5945 5945 5946 5946 5946 5945 5945 5945 5944 5943 5942 5941 5939 5938 5936 5935 5933 5931 5929 5927 5925 5919 5914 5907 5902 5905 5903 5903 5900 5900 5903 5895 5898
5928 5930 5932 5935 5937 5939 5940 5942 5943 5943 5944 5944 5944 5945 5945 5945 5945 5944 5943 5942 5941 5940 5938 5936 5934 5932 5930 5927 5924 5920 5918 5916 5914 5915 5907 5900 5897 5898 5896 5890 5893 5875 5889
5928 5931 5933 5936 5938 5939 5941 5942 5942 5943 5943 5943 5944 5943 5943 5943 5943 5942 5942 5941 5939 5938 5936 5934 5932 5930 5927 5924 5921 5918 5915 5911 5907 5906 5907 5905 5900 5896 5893 5889 5887 5879 5883
5928 5930 5932 5934 5936 5938 5939 5940 5942 5942 5942 5942 5943 5942 5942 5942 5941 5939 5938 5937 5936 5934 5932 5931 5928 5926 5923 5921 5917 5913 5910 5906 5903 5900 5898 5897 5895 5892 5888 5882 5874 5877 5876